Clinton, IA

11:16 AM CDT on July 27, 2017 (GMT -0500)
Clinton Municipal

Weather History for KCWI - November, 2012

Change the Weather History Date:

Monday, November 12, 2012

  Actual Average Record
Temperature  
Mean Temperature 27 °F -  
Max Temperature 33 °F 45 °F 66 °F (1964)
Min Temperature 21 °F 28 °F 10 °F (1996)
Degree Days  
Heating Degree Days 38    
Moisture  
Dew Point 19 °F    
Average Humidity 68    
Maximum Humidity 86    
Minimum Humidity 56    
Precipitation  
Precipitation 0.06 in - - ()
Sea Level Pressure  
Sea Level Pressure 30.20 in    
Wind  
Wind Speed 18 mph (West)    
Max Wind Speed 25 mph    
Max Gust Speed 30 mph    
Visibility 10 miles    
Events      
Averages and records for this station are not official NWS values.
T = Trace of Precipitation, MM = Missing Value Source: NWS Daily Summary

Daily Weather History Graph

Daily Weather History Graph

Search for Another Location

Airport or City:

Trip Planner

Search our weather history database for the weather conditions in past years. The results will help you decide how hot, cold, wet, or windy it might be!

Date:

Astronomy

Nov. 12, 2012 Rise Set
Actual Time 6:47 AM CST 4:42 PM CST
Civil Twilight 6:17 AM CST 5:12 PM CST
Nautical Twilight 5:44 AM CST 5:46 PM CST
Astronomical Twilight 5:11 AM CST 6:18 PM CST
Moon 5:12 AM CST (11/12) 3:48 PM CST (11/12)
Length of Visible Light 10h 54m
Length of Day
9h 55m
Waning Crescent, 2% of the Moon is Illuminated
Nov 12
Waning Crescent
Nov 13
New
Nov 20
First Quarter
Nov 28
Full
Dec 6
Last Quarter

Hourly Weather History & Observations

Time (CST) Temp. Windchill Dew Point Humidity Pressure Visibility Wind Dir Wind Speed Gust Speed Precip Events Conditions
12:15 AM 30.2 °F 17.4 °F 23.0 °F 75% 30.04 in 10.0 mi West 20.7 mph 25.3 mph N/A   Overcast
12:35 AM 30.2 °F 17.8 °F 23.0 °F 75% 30.05 in 10.0 mi West 19.6 mph 24.2 mph N/A   Overcast
12:55 AM 30.2 °F 17.8 °F 21.2 °F 69% 30.06 in 10.0 mi WNW 19.6 mph 25.3 mph N/A   Overcast
1:15 AM 28.4 °F 15.1 °F 19.4 °F 69% 30.05 in 10.0 mi West 20.7 mph 25.3 mph N/A   Overcast
1:35 AM 28.4 °F 14.7 °F 19.4 °F 69% 30.07 in 10.0 mi West 21.9 mph 26.5 mph N/A   Overcast
1:55 AM 28.4 °F 14.4 °F 19.4 °F 69% 30.08 in 10.0 mi West 23.0 mph 29.9 mph N/A   Overcast
2:15 AM 26.6 °F 11.4 °F 17.6 °F 69% 30.07 in 10.0 mi WNW 25.3 mph 29.9 mph N/A   Mostly Cloudy
2:35 AM 26.6 °F 12.0 °F 17.6 °F 69% 30.09 in 10.0 mi WNW 23.0 mph - N/A   Clear
2:55 AM 24.8 °F 11.9 °F 17.6 °F 74% 30.10 in 10.0 mi WNW 16.1 mph 21.9 mph N/A   Scattered Clouds
3:15 AM 24.8 °F 11.5 °F 17.6 °F 74% 30.10 in 10.0 mi WNW 17.3 mph 25.3 mph N/A   Mostly Cloudy
3:35 AM 24.8 °F 12.9 °F 15.8 °F 69% 30.10 in 10.0 mi WNW 13.8 mph - N/A   Clear
3:55 AM 24.8 °F 14.0 °F 17.6 °F 74% 30.11 in 10.0 mi West 11.5 mph - N/A   Clear
4:15 AM 24.8 °F 12.9 °F 15.8 °F 69% 30.12 in 10.0 mi West 13.8 mph - N/A   Clear
4:35 AM 24.8 °F 11.9 °F 15.8 °F 69% 30.12 in 10.0 mi West 16.1 mph - N/A   Clear
4:55 AM 23.0 °F 10.6 °F 17.6 °F 80% 30.12 in 10.0 mi West 13.8 mph - N/A   Clear
5:15 AM 23.0 °F 10.6 °F 15.8 °F 74% 30.12 in 10.0 mi West 13.8 mph - N/A   Clear
5:35 AM 23.0 °F 9.2 °F 15.8 °F 74% 30.13 in 10.0 mi West 17.3 mph - N/A   Clear
5:55 AM 21.2 °F 7.8 °F 15.8 °F 80% 30.13 in 10.0 mi West 15.0 mph 21.9 mph N/A   Clear
6:15 AM 21.2 °F 8.3 °F 15.8 °F 80% 30.14 in 10.0 mi West 13.8 mph 19.6 mph N/A   Clear
6:35 AM 21.2 °F 7.8 °F 15.8 °F 80% 30.14 in 10.0 mi West 15.0 mph 19.6 mph N/A   Clear
6:55 AM 21.2 °F 7.8 °F 15.8 °F 80% 30.15 in 10.0 mi West 15.0 mph - N/A   Clear
7:15 AM 21.2 °F 7.8 °F 15.8 °F 80% 30.16 in 10.0 mi West 15.0 mph 20.7 mph N/A   Clear
7:35 AM 23.0 °F 8.3 °F 15.8 °F 74% 30.16 in 10.0 mi West 19.6 mph - N/A   Clear
7:55 AM 24.8 °F 11.1 °F 15.8 °F 69% 30.17 in 10.0 mi West 18.4 mph - N/A   Clear
8:15 AM 24.8 °F 10.3 °F 17.6 °F 74% 30.18 in 10.0 mi West 20.7 mph - N/A   Partly Cloudy
8:35 AM 24.8 °F 10.3 °F 17.6 °F 74% 30.18 in 10.0 mi West 20.7 mph - N/A   Partly Cloudy
8:55 AM 26.6 °F 12.0 °F 17.6 °F 69% 30.18 in 10.0 mi West 23.0 mph 27.6 mph N/A   Partly Cloudy
9:15 AM 26.6 °F 12.7 °F 17.6 °F 69% 30.18 in 10.0 mi West 20.7 mph 25.3 mph N/A   Clear
9:55 AM 28.4 °F 14.1 °F 17.6 °F 64% 30.18 in 10.0 mi West 24.2 mph - N/A   Clear
10:15 AM 28.4 °F 14.7 °F 17.6 °F 64% 30.18 in 10.0 mi West 21.9 mph 27.6 mph N/A   Partly Cloudy
10:35 AM 30.2 °F 17.1 °F 19.4 °F 64% 30.18 in 10.0 mi West 21.9 mph 25.3 mph N/A   Partly Cloudy
10:55 AM 30.2 °F 17.8 °F 19.4 °F 64% 30.19 in 10.0 mi West 19.6 mph - N/A   Scattered Clouds
11:15 AM 30.2 °F 16.5 °F 19.4 °F 64% 30.18 in 10.0 mi West 24.2 mph - N/A   Mostly Cloudy
11:35 AM 30.2 °F 17.4 °F 19.4 °F 64% 30.17 in 10.0 mi West 20.7 mph 29.9 mph N/A   Mostly Cloudy
11:55 AM 32.0 °F 20.1 °F 19.4 °F 60% 30.18 in 10.0 mi West 19.6 mph - N/A   Mostly Cloudy
12:15 PM 32.0 °F 19.8 °F 21.2 °F 64% 30.17 in 10.0 mi West 20.7 mph 26.5 mph N/A   Mostly Cloudy
12:35 PM 30.2 °F 17.1 °F 19.4 °F 64% 30.17 in 10.0 mi West 21.9 mph - N/A   Mostly Cloudy
12:55 PM 33.8 °F 22.8 °F 19.4 °F 56% 30.17 in 10.0 mi West 18.4 mph 23.0 mph N/A   Overcast
1:15 PM 33.8 °F 21.6 °F 19.4 °F 56% 30.16 in 10.0 mi West 23.0 mph 28.8 mph N/A   Overcast
1:35 PM 33.8 °F 21.9 °F 19.4 °F 56% 30.17 in 10.0 mi West 21.9 mph 26.5 mph N/A   Overcast
1:55 PM 33.8 °F 21.9 °F 19.4 °F 56% 30.18 in 10.0 mi West 21.9 mph 29.9 mph N/A   Overcast
2:15 PM 33.8 °F 22.2 °F 19.4 °F 56% 30.18 in 10.0 mi West 20.7 mph 27.6 mph N/A   Overcast
2:35 PM 33.8 °F 21.9 °F 19.4 °F 56% 30.19 in 10.0 mi West 21.9 mph 29.9 mph N/A   Overcast
2:55 PM 32.0 °F 19.2 °F 19.4 °F 60% 30.19 in 10.0 mi West 23.0 mph - N/A   Overcast
3:15 PM 32.0 °F 19.8 °F 19.4 °F 60% 30.20 in 10.0 mi West 20.7 mph 27.6 mph N/A   Overcast
3:35 PM 32.0 °F 19.8 °F 19.4 °F 60% 30.22 in 10.0 mi West 20.7 mph 27.6 mph N/A   Overcast
3:55 PM 32.0 °F 21.2 °F 19.4 °F 60% 30.23 in 10.0 mi West 16.1 mph 26.5 mph N/A   Overcast
4:35 PM 32.0 °F 21.2 °F 21.2 °F 64% 30.24 in 10.0 mi West 16.1 mph 20.7 mph N/A   Overcast
4:55 PM 32.0 °F 23.0 °F 21.2 °F 64% 30.24 in 10.0 mi West 11.5 mph - N/A   Overcast
5:15 PM 32.0 °F 21.2 °F 21.2 °F 64% 30.25 in 10.0 mi West 16.1 mph 21.9 mph N/A   Overcast
5:35 PM 32.0 °F 21.6 °F 21.2 °F 64% 30.26 in 10.0 mi West 15.0 mph - N/A   Overcast
5:55 PM 32.0 °F 21.6 °F 21.2 °F 64% 30.27 in 10.0 mi West 15.0 mph - N/A   Overcast
6:15 PM 33.8 °F 23.5 °F 21.2 °F 60% 30.28 in 10.0 mi West 16.1 mph 19.6 mph N/A   Overcast
6:35 PM 32.0 °F 22.1 °F 21.2 °F 64% 30.28 in 10.0 mi West 13.8 mph - N/A   Overcast
6:55 PM 32.0 °F 22.1 °F 21.2 °F 64% 30.28 in 10.0 mi West 13.8 mph - N/A   Overcast
7:15 PM 32.0 °F 22.1 °F 21.2 °F 64% 30.29 in 10.0 mi West 13.8 mph - N/A   Overcast
7:35 PM 32.0 °F 21.6 °F 21.2 °F 64% 30.30 in 10.0 mi West 15.0 mph 19.6 mph N/A   Overcast
7:55 PM 32.0 °F 22.1 °F 19.4 °F 60% 30.31 in 10.0 mi West 13.8 mph - N/A   Overcast
8:35 PM 30.2 °F 20.8 °F 21.2 °F 69% 30.32 in 10.0 mi WNW 11.5 mph - N/A   Overcast
8:55 PM 30.2 °F 20.8 °F 19.4 °F 64% 30.33 in 10.0 mi WNW 11.5 mph - N/A   Overcast
9:15 PM 30.2 °F 20.2 °F 19.4 °F 64% 30.34 in 10.0 mi WNW 12.7 mph 23.0 mph N/A   Overcast
9:35 PM 30.2 °F 21.3 °F 19.4 °F 64% 30.35 in 10.0 mi NW 10.4 mph - N/A   Overcast
9:55 PM 28.4 °F 20.4 °F 19.4 °F 69% 30.36 in 10.0 mi NW 8.1 mph - N/A   Mostly Cloudy
10:15 PM 28.4 °F 23.3 °F 21.2 °F 74% 30.37 in 10.0 mi West 4.6 mph - N/A   Overcast
10:35 PM 26.6 °F 20.0 °F 19.4 °F 74% 30.38 in 10.0 mi WNW 5.8 mph - N/A   Mostly Cloudy
10:55 PM 24.8 °F 16.9 °F 17.6 °F 74% 30.38 in 10.0 mi West 6.9 mph - N/A   Partly Cloudy
11:15 PM 23.0 °F 14.7 °F 17.6 °F 80% 30.39 in 10.0 mi West 6.9 mph - N/A   Clear
11:35 PM 21.2 °F 11.7 °F 17.6 °F 86% 30.39 in 10.0 mi West 8.1 mph - N/A   Clear
11:55 PM 21.2 °F 12.6 °F 17.6 °F 86% 30.39 in 10.0 mi West 6.9 mph - N/A   Clear